SCP
0 0 0 0 0 0 0 0 0 0 0 0 0 0 0 0 0 0 0 0 0 0 0 0 0 0 0 0 0 0 0 0 0 0 0 0 0 0 0 0 0 0 0 0 0 0 0 0 0
0 0 0 0 0 0 0 0 0 0 0 0 0 0 0 0 0 0 0 0 0 0 0 0 0 0 0 0 0 0 0 0 0 0 0 0 0 0 0 0 0 0 0 0 0 0 0 0 0
0 0 0 0 0 0 0 0 0 0 0 0 0 0 0 0 0 0 0 0 0 0 0 0 0 0 0 0 0 0 0 0 0 0 0 0 0 0 0 0 0 0 0 0 0 0 0 0 0
0 0 0 0 0 0 0 0 0 0 0 0 0 0 0 0 0 0 0 0 0 0 0 0 0 0 0 0 0 0 0 0 0 0 0 0 0 0 0 0 0 0 0 0 0 0 0 0 0
0 0 0 0 0 0 0 0 0 0 0 0 0 0 0 0 0 0 0 0 0 0 0 0 0 0 0 0 0 0 0 0 0 0 0 0 0 0 0 0 0 0 0 0 0 0 0 0 0
0 0 0 0 0 0 0 0 0 0 0 0 0 0 0 0 0 0 0 0 0 0 0 0 0 0 0 0 0 0 0 0 0 0 0 0 0 0 0 0 0 0 0 0 0 0 0 0 0
0 0 0 0 0 0 0 0 0 0 0 0 0 0 0 0 0 0 0 0 0 0 0 0 0 0 0 0 0 0 0 0 0 0 0 0 0 0 0 0 0 0 0 0 0 0 0 0 0
0 0 0 0 0 0 0 0 0 0 0 0 0 0 0 0 0 0 0 0 0 0 0 0 0 0 0 0 0 0 0 0 0 0 0 0 0 0 0 0 0 0 0 0 0 0 0 0 0
0 0 0 0 0 0 0 0 0 0 0 0 0 0 0 0 0 0 0 0 0 0 0 0 0 0 0 0 0 0 0 0 0 0 0 0 0 0 0 0 0 0 0 0 0 0 0 0 0
0 0 0 0 0 0 0 0 0 0 0 0 0 0 0 0 0 0 0 0 0 0 0 0 0 0 0 0 0 0 0 0 0 0 0 0 0 0 0 0 0 0 0 0 0 0 0 0 0
0 0 0 0 0 0 0 0 0 0 0 0 0 0 0 0 0 0 0 0 0 0 0 0 0 0 0 0 0 0 0 0 0 0 0 0 0 0 0 0 0 0 0 0 0 0 0 0 0
0 0 0 0 0 0 0 0 0 0 0 0 0 0 0 0 0 0 0 0 0 0 0 0 0 0 0 0 0 0 0 0 0 0 0 0 0 0 0 0 0 0 0 0 0 0 0 0 0
0 0 0 0 0 0 0 0 0 0 0 0 0 0 0 0 0 0 0 0 0 0 0 0 0 0 0 0 0 0 0 0 0 0 0 0 0 0 0 0 0 0 0 0 0 0 0 0 0
0 0 0 0 0 0 0 0 0 0 0 0 0 0 0 0 0 0 0 0 0 0 0 0 0 0 0 0 0 0 0 0 0 0 0 0 0 0 0 0 0 0 0 0 0 0 0 0 0
0 0 0 0 0 0 0 0 0 0 0 0 0 0 0 0 0 0 0 0 0 0 0 0 0 0 0 0 0 0 0 0 0 0 0 0 0 0 0 0 0 0 0 0 0 0 0 0 0
0 0 0 0 0 0 0 0 0 0 0 0 0 0 0 0 0 0 0 0 0 0 0 0 0 0 0 0 0 0 0 0 0 0 0 0 0 0 0 0 0 0 0 0 0 0 0 0 0
0 0 0 0 0 0 0 0 0 0 0 0 0 0 0 0 0 0 0 0 0 0 0 0 0 0 0 0 0 0 0 0 0 0 0 0 0 0 0 0 0 0 0 0 0 0 0 0 0
0 0 0 0 0 0 0 0 0 0 0 0 0 0 0 0 0 0 0 0 0 0 0 0 0 0 0 0 0 0 0 0 0 0 0 0 0 0 0 0 0 0 0 0 0 0 0 0 0
0 0 0 0 0 0 0 0 0 0 0 0 0 0 0 0 0 0 0 0 0 0 0 0 0 0 0 0 0 0 0 0 0 0 0 0 0 0 0 0 0 0 0 0 0 0 0 0 0
0 0 0 0 0 0 0 0 0 0 0 0 0 0 0 0 0 0 0 0 0 0 0 0 0 0 0 0 0 0 0 0 0 0 0 0 0 0 0 0 0 0 0 0 0 0 0 0 0
0 0 0 0 0 0 0 0 0 0 0 0 0 0 0 0 0 0 0 0 0 0 0 0 0 0 0 0 0 0 0 0 0 0 0 0 0 0 0 0 0 0 0 0 0 0 0 0 0
0 0 0 0 0 0 0 0 0 0 0 0 0 0 0 0 0 0 0 0 0 0 0 0 0 0 0 0 0 0 0 0 0 0 0 0 0 0 0 0 0 0 0 0 0 0 0 0 0
0 0 0 0 0 0 0 0 0 0 0 0 0 0 0 0 0 0 0 0 0 0 0 0 0 0 0 0 0 0 0 0 0 0 0 0 0 0 0 0 0 0 0 0 0 0 0 0 0
0 0 0 0 0 0 0 0 0 0 0 0 0 0 0 0 0 0 0 0 0 0 0 0 0 0 0 0 0 0 0 0 0 0 0 0 0 0 0 0 0 0 0 0 0 0 0 0 0
0 0 0 0 0 0 0 0 0 0 0 0 0 0 0 0 0 0 0 0 0 0 0 0 0 0 0 0 0 0 0 0 0 0 0 0 0 0 0 0 0 0 0 0 0 0 0 0 0
0 0 0 0 0 0 0 0 0 0 0 0 0 0 0 0 0 0 0 0 0 0 0 0 0 0 0 0 0 0 0 0 0 0 0 0 0 0 0 0 0 0 0 0 0 0 0 0 0
0 0 0 0 0 0 0 0 0 0 0 0 0 0 0 0 0 0 0 0 0 0 0 0 0 0 0 0 0 0 0 0 0 0 0 0 0 0 0 0 0 0 0 0 0 0 0 0 0
0 0 0 0 0 0 0 0 0 0 0 0 0 0 0 0 0 0 0 0 0 0 0 0 0 0 0 0 0 0 0 0 0 0 0 0 0 0 0 0 0 0 0 0 0 0 0 0 0
0 0 0 0 0 0 0 0 0 0 0 0 0 0 0 0 0 0 0 0 0 0 0 0 0 0 0 0 0 0 0 0 0 0 0 0 0 0 0 0 0 0 0 0 0 0 0 0 0
0 0 0 0 0 0 0 0 0 0 0 0 0 0 0 0 0 0 0 0 0 0 0 0 0 0 0 0 0 0 0 0 0 0 0 0 0 0 0 0 0 0 0 0 0 0 0 0 0
Wind_Speed
8 6 3 1 6 6 4 4 2 3 4 4 6 7 7 5 3 4 1 1 2 2 2 4 8 10 11 12 12 12 13 14 14 14 14 14 14 14 14 14 14 14 14 14 14 14 15 14 14
5 4 1 4 6 4 3 3 4 3 4 4 6 6 7 6 4 5 1 1 3 2 2 4 8 10 11 12 12 13 14 14 14 14 14 14 14 14 14 14 14 13 13 13 13 14 14 13 13
5 2 3 5 4 3 2 1 4 5 4 3 4 5 5 4 4 3 2 4 4 3 2 3 8 10 11 12 12 13 13 13 13 13 13 13 13 13 13 13 13 13 12 12 12 12 12 12 11
2 3 5 6 5 2 3 4 4 5 5 6 4 5 4 3 3 4 5 5 4 2 2 3 8 9 10 11 11 12 12 12 12 12 12 12 12 12 12 12 12 12 11 11 11 11 11 10 10
3 5 7 5 4 3 3 4 3 4 4 5 5 5 4 4 6 8 6 5 4 2 2 3 7 9 9 10 10 11 11 11 11 11 11 11 11 11 11 11 11 10 10 10 10 10 9 9 8
4 5 6 3 3 4 3 3 5 7 6 5 5 4 3 3 6 6 5 4 3 2 2 3 6 8 8 9 9 9 10 10 10 10 10 9 9 9 9 9 9 9 9 9 9 9 8 7 7
4 5 4 3 3 2 3 3 4 5 5 3 4 5 2 2 3 5 5 4 3 3 3 3 3 4 6 7 8 8 8 8 8 8 8 8 7 7 7 7 7 8 7 7 7 7 7 6 6
4 6 3 2 3 2 4 3 3 5 5 4 4 6 4 4 5 6 5 4 3 2 3 3 3 3 3 3 6 7 7 7 7 7 7 6 6 6 5 5 5 6 6 6 5 5 5 5 5
4 6 2 4 5 4 4 4 2 3 5 3 3 4 5 9 8 7 5 3 2 2 2 2 2 2 2 2 3 4 5 6 6 5 6 5 3 3 3 3 4 4 5 5 4 4 4 4 3
5 4 4 4 6 6 5 5 5 4 4 3 6 7 10 9 8 7 5 4 2 1 1 1 1 1 1 1 2 2 2 3 3 3 3 3 2 2 3 3 4 4 5 4 4 3 3 3 2
4 4 2 2 5 7 6 4 3 7 3 4 9 11 10 9 7 6 5 4 3 2 2 1 1 1 1 1 2 1 1 2 2 3 3 2 2 2 3 2 2 2 3 3 3 3 2 2 1
4 2 4 4 5 6 6 5 4 3 3 7 10 12 11 9 8 7 6 4 3 2 2 1 2 1 1 1 1 1 1 1 1 1 1 1 1 1 1 1 1 1 1 1 1 1 1 2 2
3 2 3 6 7 6 7 5 4 2 6 10 11 10 9 8 6 5 4 4 3 3 2 2 2 2 1 1 0 1 1 0 0 1 1 1 1 1 1 1 1 1 1 1 1 1 1 2 2
3 5 6 6 6 4 6 4 4 3 8 10 10 9 8 8 7 5 4 4 4 4 4 3 3 2 2 1 1 0 0 0 0 0 0 0 0 0 1 1 1 1 1 1 1 1 1 1 1
6 8 6 3 3 3 6 3 1 6 9 9 8 8 7 6 6 6 6 6 6 5 4 3 4 2 2 2 2 1 1 1 0 1 1 1 1 1 1 1 0 1 1 1 1 2 2 1 2
5 6 2 1 3 3 5 2 3 8 10 8 7 7 7 6 6 6 6 5 5 4 4 4 4 3 3 2 1 1 1 1 1 1 0 1 1 1 1 1 0 0 0 1 1 1 2 1 1
4 2 2 2 3 4 3 3 4 8 9 8 7 7 7 6 6 6 6 6 5 5 4 3 3 3 3 2 2 1 1 1 0 0 0 1 1 1 1 1 0 0 1 1 1 1 1 2 1
3 3 2 3 3 4 3 3 5 8 9 9 8 7 7 8 8 7 6 6 5 4 4 4 3 3 3 2 1 1 1 1 1 0 0 0 0 1 1 0 0 1 1 1 1 1 1 1 1
5 4 2 3 3 4 3 3 6 8 8 8 7 7 7 8 6 5 6 6 5 4 4 4 4 3 3 2 1 1 0 0 0 0 0 0 0 0 1 0 0 1 1 1 1 1 2 1 1
4 4 2 1 2 4 1 2 4 8 10 10 10 10 10 8 5 6 6 6 6 6 5 4 4 4 3 2 2 2 1 1 0 1 1 1 0 0 1 1 1 1 1 1 1 1 1 1 1
2 5 5 3 3 4 3 3 2 4 6 6 8 9 9 10 9 8 7 7 6 7 7 6 5 4 3 3 2 2 2 2 1 1 1 1 1 0 0 0 0 1 1 1 1 2 2 1 1
3 4 5 5 5 1 2 2 6 4 5 8 10 10 10 10 9 8 8 8 8 8 6 5 5 4 4 4 3 3 2 2 1 1 1 1 1 1 1 1 1 1 1 1 2 2 1 2 1
5 3 5 4 5 3 2 1 8 1 5 10 11 12 12 11 11 10 10 10 8 7 7 6 5 4 4 4 5 4 3 2 1 0 1 1 2 1 1 1 0 0 1 1 1 1 1 1 1
6 8 8 6 5 1 2 3 7 5 8 8 9 11 12 11 11 10 8 7 6 6 6 6 6 5 4 5 5 5 4 3 2 1 0 1 1 1 1 1 0 0 1 1 1 1 1 1 1
6 7 4 4 3 5 2 3 10 8 8 9 10 11 11 11 10 10 9 9 8 8 8 7 7 6 5 5 5 5 5 4 3 2 2 1 0 1 1 0 0 0 1 1 1 1 1 1 1
5 9 9 6 5 4 1 5 9 6 6 6 6 6 7 9 10 10 11 10 10 9 8 8 8 7 6 6 5 4 4 3 3 3 2 2 1 1 1 0 0 0 0 0 1 1 1 1 1
7 4 6 8 3 1 4 7 10 3 3 1 3 5 8 9 10 10 10 9 9 9 9 9 9 7 7 6 5 4 4 4 3 3 2 2 1 1 1 1 0 0 1 1 1 1 0 0 1
6 9 6 7 6 2 4 4 5 5 4 2 2 5 6 7 8 9 9 9 9 8 8 8 8 8 7 7 6 5 4 4 3 3 3 2 1 1 1 1 1 1 1 1 1 1 0 0 0
5 5 6 5 5 7 3 8 7 7 5 5 5 5 6 7 9 8 8 8 8 7 7 7 7 7 6 6 6 5 4 4 4 3 3 3 2 2 1 1 1 1 1 1 1 1 1 0 0
5 7 8 7 4 4 4 9 6 5 5 5 5 4 4 6 7 7 7 7 7 7 7 7 7 7 7 6 6 5 4 4 4 4 4 3 3 2 2 2 1 1 1 0 0 0 0 0 0
Wind_Direction
153 148 141 95 54 51 41 15 49 54 51 45 65 76 81 61 76 122 259 89 84 40 21 82 82 78 80 83 84 86 93 97 94 95 99 99 99 99 101 102 103 104 104 105 106 106 105 105 107
147 153 117 60 72 63 20 14 65 72 129 127 71 67 70 64 67 103 102 109 90 64 42 79 85 82 85 86 87 89 92 94 96 95 97 98 99 99 101 103 103 104 103 104 106 106 106 108 110
164 163 81 66 76 117 124 90 106 99 89 68 66 56 63 74 104 126 151 128 89 62 45 79 85 87 89 89 90 91 93 93 93 93 96 98 99 99 100 101 102 103 103 105 107 110 112 112 111
140 56 55 65 66 85 138 145 129 106 64 49 73 62 53 58 115 131 127 116 93 66 49 87 94 95 95 93 92 94 95 94 93 92 92 96 97 98 98 99 101 101 102 104 107 110 113 112 114
69 73 61 53 47 55 96 129 96 81 64 59 72 76 42 22 92 112 116 110 102 74 45 80 98 101 99 97 97 97 98 98 97 94 91 91 93 97 99 101 102 102 103 104 106 108 111 113 115
61 66 75 71 66 67 81 82 82 79 80 79 75 81 52 71 100 116 112 104 104 93 59 68 99 105 102 101 100 101 101 100 100 98 95 91 90 94 99 102 103 103 102 104 106 108 111 110 113
95 83 98 117 105 100 127 92 96 109 97 90 96 88 88 109 113 112 103 98 90 78 63 44 60 89 102 106 105 105 103 103 102 101 100 99 98 97 98 100 104 105 106 107 111 113 112 111 115
117 94 84 105 127 132 136 106 106 110 100 118 109 123 156 166 126 106 93 85 79 68 58 50 48 54 61 83 104 106 104 104 104 102 99 95 93 92 93 94 104 109 111 113 117 119 120 117 120
90 77 133 175 159 147 139 119 114 82 104 95 83 118 141 133 123 111 102 87 84 85 49 54 56 54 58 70 98 94 97 94 88 87 87 69 49 50 64 77 90 96 102 106 108 111 116 111 105
87 114 201 186 160 142 137 129 136 107 99 80 78 90 118 128 133 136 144 156 166 168 159 87 82 78 71 81 69 53 60 60 59 54 55 47 41 34 53 51 72 72 82 95 101 90 82 82 77
111 148 160 115 130 127 128 123 109 124 144 167 147 141 142 145 148 155 165 174 186 184 182 166 149 126 96 78 85 61 52 52 52 56 57 50 42 31 38 32 30 39 54 54 60 58 59 74 95
103 96 122 127 123 124 135 127 114 149 188 152 145 147 152 161 167 173 176 183 174 167 192 184 164 145 124 106 100 95 77 59 52 45 64 72 57 36 31 27 32 38 47 50 47 66 69 72 85
88 89 85 104 104 113 108 109 118 114 117 125 135 146 161 172 178 183 180 177 172 184 201 199 175 163 144 118 121 119 120 118 102 50 48 86 88 49 38 17 21 25 50 61 50 55 63 62 61
100 84 86 94 103 111 110 97 97 132 131 136 147 160 174 181 181 174 175 182 191 198 199 198 191 185 156 151 164 167 162 135 84 309 268 163 143 82 53 26 6 2 37 61 66 63 65 63 63
86 81 62 72 99 119 106 72 147 153 143 150 162 171 179 189 186 189 188 189 195 198 193 190 191 176 167 179 191 179 168 137 212 270 249 191 158 163 144 103 16 335 34 72 71 69 76 74 71
63 69 84 240 124 127 114 193 186 156 154 166 176 181 186 198 202 202 192 189 192 187 189 198 190 168 177 180 186 181 161 152 206 249 238 201 191 185 169 175 218 253 85 91 97 91 88 80 77
46 110 184 228 175 143 148 211 184 166 166 179 188 190 191 200 211 210 198 190 190 187 184 187 180 172 181 176 165 161 139 139 162 178 217 218 205 194 181 184 156 104 119 111 124 104 126 126 113
191 175 185 208 204 152 172 211 174 177 181 192 196 197 197 205 214 206 199 192 186 184 179 178 173 175 163 144 119 99 76 58 52 37 277 251 212 185 152 159 60 99 109 81 98 125 120 130 126
156 151 179 232 190 152 196 215 192 184 190 201 204 203 209 218 214 199 195 186 176 178 178 178 172 173 150 138 143 133 139 57 21 304 321 322 299 134 141 165 130 132 134 158 142 133 121 110 121
137 141 167 3 99 138 174 249 203 193 201 203 204 206 209 215 205 197 192 185 183 187 187 184 185 179 174 167 156 149 138 124 120 7 15 351 333 138 160 172 198 162 139 127 126 137 128 146 149
170 174 178 163 83 59 83 337 237 220 208 211 213 212 208 208 205 199 194 193 190 192 191 194 193 185 178 160 119 96 76 53 35 2 341 335 345 337 287 226 188 170 166 185 186 167 163 189 214
215 209 163 142 111 30 93 272 281 226 219 220 218 214 212 211 203 198 195 196 197 198 189 188 185 180 173 156 149 152 156 171 206 236 294 338 357 334 292 251 217 204 187 199 216 186 188 177 205
187 117 110 113 110 66 36 135 284 256 239 237 224 216 214 207 200 199 198 197 196 190 182 180 178 180 173 164 165 159 166 180 169 150 328 343 349 334 322 303 241 237 224 224 230 193 184 190 196
121 79 61 52 67 27 238 164 275 236 225 239 226 216 211 205 198 198 195 187 187 181 177 175 176 183 176 171 172 173 178 175 161 179 272 316 331 329 329 306 293 231 224 230 226 197 185 198 197
100 98 57 20 17 254 243 191 250 247 230 225 226 219 207 198 192 189 186 185 186 182 182 179 177 186 183 177 182 183 182 179 187 196 205 213 268 298 297 299 250 246 231 213 189 158 177 186 176
164 137 151 174 204 269 309 234 254 261 255 235 222 209 193 189 190 191 189 187 188 187 183 179 180 188 185 182 187 186 180 181 194 199 194 198 206 229 248 189 183 2 64 129 143 135 189 150 171
137 151 150 125 130 133 276 285 299 290 306 262 192 180 191 189 188 188 186 185 186 185 186 185 184 187 186 185 183 184 185 186 193 192 187 197 209 201 169 132 101 39 57 66 104 97 192 157 183
131 140 105 115 136 205 287 279 259 280 274 259 204 198 200 186 181 182 184 184 185 185 182 181 184 186 185 184 188 190 190 192 189 178 184 188 197 181 136 119 96 40 35 50 86 78 9 138 261
109 98 105 111 142 150 214 266 233 228 232 225 221 206 194 181 181 182 184 182 174 170 172 179 179 176 179 183 184 185 184 183 180 185 194 193 189 177 167 171 152 111 32 45 83 68 55 94 22
140 152 143 145 182 159 167 262 266 236 236 216 210 197 186 176 174 174 174 170 169 172 175 179 178 181 185 183 181 185 180 173 180 192 197 190 188 185 181 171 158 167 159 119 134 164 59 117 68